Lid_Strength_Index
11 12 13 14 15 15 15 15 15 15 15 15 15 14 15 16 16 16 16 17 18 18 18 18 18 18 18 19 19 19 19 19
12 12 12 12 14 15 15 15 16 16 15 16 16 16 16 16 16 16 17 17 18 17 18 18 18 18 18 19 19 19 20 20
13 12 12 12 11 12 13 14 14 15 15 16 16 16 17 16 16 16 17 17 17 17 18 18 18 18 18 19 19 20 20 20
13 13 12 12 12 12 12 12 13 13 15 15 15 16 16 15 15 16 16 17 17 17 18 18 18 18 18 19 19 20 20 20
14 13 12 12 12 13 13 13 13 13 15 15 15 15 14 14 15 16 16 17 17 17 17 17 18 18 18 19 19 20 19 19
13 13 12 12 12 13 13 13 13 14 14 13 14 15 14 14 15 16 16 16 17 17 17 18 18 18 18 19 19 20 20 20
12 11 12 12 13 13 13 13 13 14 14 13 13 14 15 15 15 16 16 17 17 17 17 18 18 15 15 17 19 19 20 21
13 13 13 12 12 13 13 12 13 13 13 13 14 15 14 15 16 17 17 17 17 17 18 18 18 15 14 15 19 19 20 20
14 14 14 13 13 13 12 12 13 13 13 14 14 15 16 17 17 18 18 17 18 17 17 17 18 15 14 15 18 19 20 21
13 14 14 14 14 13 15 14 13 13 13 14 15 15 16 17 17 17 17 18 17 17 17 17 18 15 13 15 19 19 20 20
13 14 14 14 13 15 16 15 15 14 14 15 16 17 17 18 18 17 16 17 17 18 17 18 18 15 14 15 19 20 21 20
13 14 14 13 15 16 16 16 15 16 16 14 14 16 17 16 19 18 18 19 19 20 19 19 18 17 13 13 18 19 20 21
14 15 14 14 15 16 17 16 16 16 16 15 15 15 17 18 18 18 18 19 21 21 22 20 19 17 14 13 17 17 19 20
15 16 15 15 16 17 17 17 18 18 18 18 17 14 16 17 18 19 19 19 21 21 22 21 20 18 14 12 15 15 19 19
15 16 17 16 16 17 18 18 20 21 21 20 20 17 15 16 17 18 19 19 19 21 21 21 21 20 17 14 14 16 18 17
15 16 17 17 18 19 19 20 22 22 22 22 21 20 16 16 16 17 17 17 18 19 19 20 21 20 17 15 16 17 19 18
16 17 18 19 20 20 21 22 23 24 23 22 21 20 18 17 17 14 14 15 14 15 17 18 17 17 16 14 14 15 15 19
19 20 21 22 22 22 22 23 24 25 25 24 23 21 20 17 18 19 17 14 14 14 14 15 16 16 15 14 13 14 15 21
21 22 23 23 24 23 23 23 24 24 23 23 23 22 20 18 17 17 19 20 18 14 14 13 14 14 15 13 12 15 17 22
23 24 24 25 25 24 24 24 24 24 23 22 21 20 19 18 16 17 18 19 19 17 14 13 13 14 13 12 15 17 22 22